341  
ASUS43 KGRB 220101  
RWRGRB  
 
NORTH-CENTRAL AND NORTHEAST WISCONSIN REGIONAL WEATHER ROUNDUP  
NATIONAL WEATHER SERVICE GREEN BAY WI  
800 PM CDT SAT OCT 21 2017  
 
WIZ005-009-010>012-018-019-220200-  
NORTH CENTRAL WISCONSIN  
 
CITY SKY/WX TMP DP RH WIND PRES REMARKS
 
IRONWOOD MOCLDY 67 58 72 S14G21 29.76F  
MANITOWISH WTR NOT AVBL  
ARBOR VITAE NOT AVBL  
EAGLE RIVER NOT AVBL  
LAND O LAKES NOT AVBL  
RHINELANDER MOCLDY 67 57 70 S10 29.85S  
PHILLIPS NOT AVBL  
ANTIGO NOT AVBL  
TOMAHAWK NOT AVBL  
MERRILL NOT AVBL  

 
 
WIZ013-073-220200-  
NORTHEAST WISCONSIN  
 
CITY SKY/WX TMP DP RH WIND PRES REMARKS
 
IRON MOUNTAIN CLEAR 61 52 72 SE7 29.89R  
MARINETTE NOT AVBL  

 
 
WIZ017-030-035>037-045-220200-  
CENTRAL WISCONSIN  
 
CITY SKY/WX TMP DP RH WIND PRES REMARKS
 
MEDFORD NOT AVBL  
WAUSAU CLOUDY 69 58 67 S8 29.84R  
MOSINEE MOCLDY 68 59 73 S10 29.87R  
MARSHFIELD MOCLDY 69 56 62 S14 29.83S  
WISC RAPIDS CLEAR 70 58 65 S10G17 29.86S  
STEVENS POINT NOT AVBL  
WAUPACA NOT AVBL  
SHAWANO NOT AVBL  
CLINTONVILLE NOT AVBL  
WAUTOMA CLOUDY N/A N/A N/A S9 29.89R  

 
 
WIZ038-039-048-051-220200-  
FOX VALLEY  
 
CITY SKY/WX TMP DP RH WIND PRES REMARKS
 
NWS GREEN BAY CLEAR 64 57 78 S9 29.92R  
APPLETON MOCLDY 64 54 68 SE7 29.90R  
OSHKOSH CLOUDY 68 56 65 S8 29.91R  
FOND DU LAC MOCLDY 70 54 56 S10 29.92S  

 
 
WIZ022-050-052-220200-  
EAST CENTRAL WISCONSIN  
 
CITY SKY/WX TMP DP RH WIND PRES REMARKS
 
EPHRAIM NOT AVBL  
WASHINGTON ISL NOT AVBL  
STURGEON BAY CLEAR 62 56 80 S20G29 29.94S  
MANITOWOC CLEAR 61 55 81 S21 29.97R  
SHEBOYGAN PTCLDY 62 57 83 S10 29.97R  

 
 
LMZ563-521-522-541>543-220200-  
LAKESHORE  
 
STATION/POSITION TIME TEMP WIND PRES VSBY WAVE
 
AIR SEA DIR/SP/G HT/PER  
(UTC) (F) (DEG/KT/KT) (MB) (MI) (FT/S)  
SHEBOYGAN LKSHOR 0000 58 180/ 20/ 21 1014.0F  
KEWAUNEE LKSHORE 0030 58 180/ 15/ 18 1013.5R  
NORTHPORT PIER 0040 61 160/ 9/ 16 1013.9S  
N MID LAKE BUOY 2350 64 58 180/ 19/ 23 1014.3R 8/ 7  
S GREEN BAY BUOY 0030 63 58 160/ 21/ 25 1012.2F  
SISTER BAY LKSHO 0004 62 190/ 20/ 24 N/A  
MENOMINEE LKSHOR 0030 61 160/ 15/ 20 1012.6S  

 
 
 
CLICK HERE TO GO TO PREVIOUS BULLETINS.

The Nexlab WI Page Main Text Page